• In Uzbekistan
  • List of Countries
  • For 7 days
  • Water Temperature
  • Satellite Maps
  • Weather Map
  • Weather Widgets
  • user-avatar
    Login

    Hourly Weather Benguela

    Today, 26 May, Friday

    Time Temperature Precipitation Wind Pressure Humidity
    00:00 +27°C° 0 mm 2 mps 758 mmHg 65%
    01:00 +26°C° 0 mm 2 mps 758 mmHg 65%
    02:00 +26°C° 0 mm 2 mps 758 mmHg 63%
    03:00 +26°C° 0 mm 2 mps 758 mmHg 62%
    04:00 +26°C° 0 mm 2 mps 758 mmHg 60%
    05:00 +27°C° 0 mm 2 mps 758 mmHg 58%
    06:00 +27°C° 0 mm 2 mps 758 mmHg 55%
    07:00 +29°C° 0 mm 1 mps 759 mmHg 51%
    08:00 +31°C° 0 mm 2 mps 759 mmHg 45%
    09:00 +32°C° 0 mm 2 mps 759 mmHg 39%
    10:00 +35°C° 0 mm 2 mps 759 mmHg 33%
    11:00 +36°C° 0 mm 3 mps 759 mmHg 33%
    12:00 +37°C° 0 mm 3 mps 759 mmHg 33%
    13:00 +38°C° 0 mm 4 mps 758 mmHg 32%
    14:00 +37°C° 0 mm 4 mps 758 mmHg 37%
    15:00 +36°C° 0 mm 4 mps 758 mmHg 41%
    16:00 +35°C° 0 mm 4 mps 757 mmHg 45%
    17:00 +33°C° 0 mm 4 mps 758 mmHg 55%
    18:00 +30°C° 0 mm 3 mps 759 mmHg 64%
    19:00 +27°C° 0 mm 2 mps 759 mmHg 73%
    20:00 +27°C° 0 mm 2 mps 760 mmHg 77%
    21:00 +26°C° 0 mm 2 mps 760 mmHg 80%
    22:00 +26°C° 0 mm 1 mps 761 mmHg 83%
    23:00 +25°C° 0 mm 1 mps 761 mmHg 83%

    Tomorrow, 27 May, Saturday

    Time Temperature Precipitation Wind Pressure Humidity
    00:00 +25°C° 0 mm 1 mps 761 mmHg 82%
    01:00 +25°C° 0 mm 1 mps 761 mmHg 81%
    02:00 +25°C° 0 mm 1 mps 760 mmHg 80%
    03:00 +25°C° 0 mm 2 mps 760 mmHg 78%
    04:00 +25°C° 0 mm 2 mps 760 mmHg 77%
    05:00 +26°C° 0 mm 2 mps 760 mmHg 73%
    06:00 +27°C° 0 mm 2 mps 760 mmHg 69%
    07:00 +27°C° 0 mm 2 mps 760 mmHg 65%
    08:00 +30°C° 0 mm 2 mps 761 mmHg 55%
    09:00 +32°C° 0 mm 2 mps 761 mmHg 46%
    10:00 +35°C° 0 mm 2 mps 761 mmHg 36%
    11:00 +36°C° 0 mm 3 mps 760 mmHg 34%
    12:00 +37°C° 0 mm 4 mps 760 mmHg 32%
    13:00 +38°C° 0 mm 4 mps 759 mmHg 31%
    14:00 +37°C° 0 mm 4 mps 759 mmHg 36%
    15:00 +36°C° 0 mm 4 mps 758 mmHg 42%
    16:00 +35°C° 0 mm 4 mps 758 mmHg 47%
    17:00 +32°C° 0 mm 4 mps 758 mmHg 57%
    18:00 +29°C° 0 mm 3 mps 759 mmHg 66%
    19:00 +27°C° 0 mm 2 mps 759 mmHg 75%
    20:00 +26°C° 0 mm 2 mps 760 mmHg 78%
    21:00 +26°C° 0 mm 2 mps 760 mmHg 81%
    22:00 +25°C° 0 mm 1 mps 761 mmHg 84%
    23:00 +25°C° 0 mm 1 mps 761 mmHg 84%

    Day after tomorrow, 28 May, Sunday

    Time Temperature Precipitation Wind Pressure Humidity
    00:00 +25°C° 0 mm 1 mps 761 mmHg 85%
    01:00 +25°C° 0 mm 2 mps 761 mmHg 85%
    02:00 +25°C° 0 mm 2 mps 761 mmHg 83%
    03:00 +25°C° 0 mm 2 mps 760 mmHg 82%
    04:00 +25°C° 0 mm 2 mps 760 mmHg 80%
    05:00 +26°C° 0 mm 2 mps 760 mmHg 77%
    06:00 +26°C° 0 mm 1 mps 761 mmHg 74%
    07:00 +27°C° 0 mm 1 mps 761 mmHg 71%
    08:00 +29°C° 0 mm 1 mps 761 mmHg 61%
    09:00 +32°C° 0 mm 1 mps 761 mmHg 51%
    10:00 +34°C° 0 mm 1 mps 762 mmHg 41%
    11:00 +36°C° 0 mm 2 mps 761 mmHg 39%
    12:00 +37°C° 0 mm 3 mps 760 mmHg 38%
    13:00 +38°C° 0 mm 4 mps 760 mmHg 36%
    14:00 +37°C° 0 mm 4 mps 759 mmHg 41%
    15:00 +36°C° 0 mm 3 mps 759 mmHg 45%
    16:00 +35°C° 0 mm 3 mps 758 mmHg 50%
    17:00 +33°C° 0 mm 3 mps 759 mmHg 58%
    18:00 +30°C° 0 mm 2 mps 759 mmHg 65%
    19:00 +28°C° 0 mm 2 mps 760 mmHg 73%
    20:00 +28°C° 0 mm 2 mps 760 mmHg 73%
    21:00 +28°C° 0 mm 2 mps 761 mmHg 73%
    22:00 +28°C° 0 mm 1 mps 761 mmHg 73%
    23:00 +27°C° 0 mm 1 mps 761 mmHg 74%

    29 May, Monday

    Time Temperature Precipitation Wind Pressure Humidity
    00:00 +27°C° 0 mm 1 mps 761 mmHg 74%
    01:00 +27°C° 0 mm 1 mps 760 mmHg 75%
    02:00 +27°C° 0 mm 1 mps 760 mmHg 75%
    03:00 +27°C° 0 mm 1 mps 760 mmHg 74%
    04:00 +26°C° 0 mm 1 mps 759 mmHg 74%
    05:00 +27°C° 0 mm 1 mps 760 mmHg 70%
    06:00 +28°C° 0 mm 1 mps 760 mmHg 66%
    07:00 +29°C° 0 mm 1 mps 760 mmHg 62%
    08:00 +31°C° 0 mm 1 mps 760 mmHg 52%
    09:00 +35°C° 0 mm 2 mps 760 mmHg 42%
    10:00 +38°C° 0 mm 2 mps 761 mmHg 32%
    11:00 +39°C° 0 mm 2 mps 760 mmHg 31%
    12:00 +39°C° 0 mm 3 mps 759 mmHg 30%
    13:00 +41°C° 0 mm 4 mps 758 mmHg 29%
    14:00 +41°C° 0 mm 4 mps 758 mmHg 31%
    15:00 +40°C° 0 mm 4 mps 758 mmHg 34%
    16:00 +38°C° 0 mm 4 mps 757 mmHg 36%
    17:00 +36°C° 0 mm 3 mps 758 mmHg 44%
    18:00 +33°C° 0 mm 3 mps 758 mmHg 51%
    19:00 +30°C° 0 mm 2 mps 759 mmHg 59%
    20:00 +30°C° 0 mm 2 mps 759 mmHg 59%
    21:00 +29°C° 0 mm 2 mps 760 mmHg 60%
    22:00 +29°C° 0 mm 1 mps 760 mmHg 60%
    23:00 +29°C° 0 mm 1 mps 760 mmHg 62%

    30 May, Tuesday

    Time Temperature Precipitation Wind Pressure Humidity
    00:00 +29°C° 0 mm 1 mps 759 mmHg 63%
    01:00 +28°C° 0 mm 1 mps 759 mmHg 64%
    02:00 +28°C° 0 mm 1 mps 759 mmHg 64%
    03:00 +28°C° 0 mm 1 mps 759 mmHg 63%
    04:00 +28°C° 0 mm 1 mps 758 mmHg 62%
    05:00 +29°C° 0 mm 1 mps 759 mmHg 59%
    06:00 +29°C° 0 mm 2 mps 759 mmHg 56%
    07:00 +30°C° 0 mm 2 mps 760 mmHg 53%
    08:00 +33°C° 0 mm 3 mps 760 mmHg 47%
    09:00 +35°C° 0 mm 3 mps 760 mmHg 40%
    10:00 +37°C° 0 mm 3 mps 760 mmHg 33%
    11:00 +38°C° 0 mm 3 mps 759 mmHg 32%
    12:00 +40°C° 0 mm 4 mps 759 mmHg 32%
    13:00 +41°C° 0 mm 4 mps 758 mmHg 31%
    14:00 +40°C° 0 mm 4 mps 758 mmHg 35%
    15:00 +38°C° 0 mm 4 mps 757 mmHg 38%
    16:00 +38°C° 0 mm 3 mps 757 mmHg 42%
    17:00 +35°C° 0 mm 3 mps 758 mmHg 51%
    18:00 +32°C° 0 mm 2 mps 758 mmHg 60%
    19:00 +29°C° 0 mm 1 mps 759 mmHg 69%
    20:00 +29°C° 0 mm 1 mps 759 mmHg 68%
    21:00 +29°C° 0 mm 1 mps 760 mmHg 68%
    22:00 +29°C° 0 mm 1 mps 760 mmHg 67%
    23:00 +29°C° 0 mm 1 mps 760 mmHg 67%

    31 May, Wednesday

    Time Temperature Precipitation Wind Pressure Humidity
    00:00 +29°C° 0 mm 1 mps 759 mmHg 68%
    01:00 +29°C° 0 mm 1 mps 759 mmHg 68%
    02:00 +29°C° 0 mm 1 mps 759 mmHg 67%
    03:00 +28°C° 0 mm 1 mps 759 mmHg 66%
    04:00 +28°C° 0 mm 1 mps 759 mmHg 65%
    05:00 +28°C° 0 mm 2 mps 759 mmHg 65%
    06:00 +29°C° 0 mm 2 mps 760 mmHg 64%
    07:00 +29°C° 0 mm 3 mps 760 mmHg 63%
    08:00 +31°C° 0 mm 3 mps 761 mmHg 56%
    09:00 +34°C° 0 mm 3 mps 761 mmHg 50%
    10:00 +36°C° 0 mm 4 mps 761 mmHg 43%
    11:00 +37°C° 0 mm 4 mps 760 mmHg 41%
    12:00 +38°C° 0 mm 4 mps 759 mmHg 39%
    13:00 +40°C° 0 mm 4 mps 759 mmHg 37%
    14:00 +38°C° 0 mm 4 mps 758 mmHg 40%
    15:00 +37°C° 0 mm 4 mps 758 mmHg 43%
    16:00 +36°C° 0 mm 3 mps 758 mmHg 47%
    17:00 +34°C° 0 mm 2 mps 758 mmHg 57%
    18:00 +31°C° 0 mm 2 mps 759 mmHg 67%
    19:00 +28°C° 0 mm 1 mps 760 mmHg 77%
    20:00 +28°C° 0 mm 1 mps 760 mmHg 77%
    21:00 +28°C° 0 mm 1 mps 760 mmHg 77%
    22:00 +28°C° 0 mm 1 mps 760 mmHg 77%
    23:00 +27°C° 0 mm 1 mps 760 mmHg 75%
    Show more